Regional Weather Roundup
Issued by NWS Wakefield, VA

Home | Current Version | Previous Version | Graphics & Text | Print | Product List | Glossary On
Versions: 1 2 3 4 5 6 7 8 9 10 11 12 13 14 15 16 17 18 19 20 21 22 23 24 25 26 27
000
ASUS41 KAKQ 161915
RWRAKQ

REGIONAL WEATHER ROUNDUP
NATIONAL WEATHER SERVICE WAKEFIELD VA
200 PM EST SAT DEC 16 2017

Note: "fair" indicates few or no clouds below 12,000 feet with no
significant weather and/or obstructions to visibility. * = Denotes
station may not report precipitation (e.g., rain,snow,etc.),
thunder or fog.

VAZ042-051-052>054-056-162000-
NORTHERN VIRGINIA

CITY           SKY/WX    TMP DP  RH WIND       PRES   REMARKS
WASH NATIONAL  MOSUNNY   47  23  38 S15G23    30.09F
DULLES         MOSUNNY   45  22  40 SW14      30.07F
FORT BELVOIR   SUNNY     46  22  38 S8G17     30.09F
QUANTICO       SUNNY     48  23  37 SW16G23   30.11F
FREDERICKSBRG* SUNNY     48  25  40 SW14      30.11S
STAFFORD*      SUNNY     47  21  35 SW8G17    30.14F
WARRENTON      SUNNY     48  17  28 SW13G18   30.08F
CULPEPER*      SUNNY     48  20  32 SW12      30.09F
MANASSAS*      SUNNY     46  22  38 SW15      30.09
LEESBURG*      PTSUNNY   46  27  46 SW13G18   30.07F
WINCHESTER     PTSUNNY   45  21  39 SW13      30.03F
FRONT ROYAL*   CLEAR     46  23  39 MISG      30.03F
LURAY*         CLEAR     46  25  42 S13       30.04F
$$

VAZ048-049-060>072-079>083-162000-
CENTRAL AND SOUTH CENTRAL VIRGINIA

CITY           SKY/WX    TMP DP  RH WIND       PRES   REMARKS
RICHMOND       MOSUNNY   51  21  30 SW13G22   30.14F
CHESTERFIELD*  NOT AVBL
PETERSBURG*    SUNNY     48  18  29 S7        30.16S
HANOVER        SUNNY     46  21  37 SW10      30.14F
TAPPAHANNOCK*  SUNNY     47  22  38 SW9       30.14F
QUINTON*       FAIR      46  21  37 SW9       30.14F
CHARLOTTSVILLE SUNNY     49  22  34 SW9       30.07F
GORDONSVILLE*  CLEAR     47  23  38 SW12G17   30.08F
ORANGE*        SUNNY     46  23  39 S8G20     30.09F
LOUISA*        SUNNY     46  20  35 SW9G16    30.14F
BUMPASS*       FAIR      46  19  33 SW9G17    30.11F
FARMVILLE*     SUNNY     48  26  41 S8G17     30.12F
CREWE*         FAIR      47  23  39 SW9       30.15S
FORT PICKETT*  NOT AVBL
CHASE CITY*    FAIR      47  24  40 SW6       30.16F
CLARKSVILLE*   FAIR      46  23  39 SW9       30.17F
SOUTH HILL*    SUNNY     46  25  42 S10       30.22F
LAWRENCEVILLE* FAIR      48  21  34 W6        30.16F
EMPORIA*       SUNNY     46  21  36 S8        30.18F
$$

VAZ088>098-162000-
SOUTHEAST VIRGINIA

CITY           SKY/WX    TMP DP  RH WIND       PRES   REMARKS
NORFOLK        SUNNY     47  19  33 SW10      30.15F
VIRGINIA BEACH MOSUNNY   46  18  32 SW10      30.16F
NORFOLK NAVAL  MOSUNNY   47  20  34 SW9       30.17F
WEST POINT*    SUNNY    N/A N/A N/A SW8       30.17S
SALUDA*        FAIR      46  22  37 SW8       30.15S
NEWPORT NEWS   SUNNY     46  22  38 SW12      30.16F
LANGLEY AFB    SUNNY     46  22  38 SW9       30.15F
FORT EUSTIS    SUNNY     47  22  37 SW9       30.13F
WILLIAMSBURG*  SUNNY     50  23  34 SW3       30.16F
HR EXEC AP*    FAIR      47  20  34 S7        30.17F
FRANKLIN*      SUNNY     46  21  37 SW10      30.18F
US460-WAKEFLD  SUNNY     47  22  37 SW8       30.16F
$$

VAZ020-022-025-037-045-162000-
WEST CENTRAL AND SOUTHWEST VIRGINIA

CITY           SKY/WX    TMP DP  RH WIND       PRES   REMARKS
STAUNTON*      SUNNY     46  24  41 SW15      30.06F
WAYNESBORO*    CLEAR     45  24  42 SW12G23   30.05F
HOT SPRINGS VA SUNNY     37  21  54 W14G23    30.01R
LYNCHBURG      SUNNY     47  23  38 S14       30.11F
DANVILLE       SUNNY     47  24  40 SW13      30.17F
SOUTH BOSTON*  FAIR      49  21  34 SW8       30.17F
MARTINSVILLE   SUNNY     47  23  37 SW7       30.18F
ROANOKE        SUNNY     48  24  39 SW14      30.13F
BLACKSBURG     SUNNY     45  26  47 SW7       30.14S
DUBLIN*        SUNNY     44  25  46 SW14G20   30.13S
MARION*        SUNNY     41  21  46 W16G25    30.16S
HILLSVILLE*    SUNNY     44  23  43 NW6       30.10F
RICHLANDS*     FAIR      40  24  52 W10G17    30.14S
WISE*          SUNNY     41  28  60 SW14      30.15F
ABINGDON*      SUNNY     43  26  51 W12       30.18F
$$

MDZ021>025-VAZ099-100-162000-
SOUTHERN MARYLAND AND THE DELMARVA PENINSULA

CITY           SKY/WX    TMP DP  RH WIND       PRES   REMARKS
PATUXENT RIVER MOSUNNY   44  21  40 SW13      30.12F
BAY BRIDGE APT SUNNY     43  27  52 SW13G18   30.10S
LEONARDTOWN    SUNNY     45  23  42 SW10      30.13S
DOVER          CLOUDY    43  28  56 SW16      30.08S
GEORGETOWN     SUNNY     44  25  47 SW17      30.12R
EASTON         MOSUNNY   43  25  49 SW16      30.13F
CAMBRIDGE      SUNNY     45  23  42 SW9G15    30.12S
SALISBURY      SUNNY     43  22  43 SW13      30.12S
OCEAN CITY     SUNNY     44  24  45 SW14      30.13S
WALLOPS ISLAND SUNNY     44  20  38 W8        30.14F
ACCOMACK*      SUNNY     45  23  41 SW10      30.14F
$$

NCZ012>017-030>032-162000-
NORTH CENTRAL AND EASTERN NORTH CAROLINA

CITY           SKY/WX    TMP DP  RH WIND       PRES   REMARKS
ROANOKE RAPIDS FAIR      48  25  40 SW7       30.19F
RALEIGH        MOSUNNY   48  22  35 W9        30.21F
ELIZABETH CITY SUNNY     46  24  42 SW7       30.19F
AHOSKIE*       SUNNY     46  22  39 CALM      30.20F
EDENTON*       SUNNY     47  23  39 SW5       30.22F
CURRITUCK*     SUNNY     46  22  39 SW8       30.20F
KILL DEVIL HLS SUNNY     43  20  40 CALM      30.20F
MANTEO         SUNNY     43  19  38 NW3       30.22F
CAPE HATTERAS  SUNNY     45  27  49 VRB5      30.22R
TARBORO*       NOT AVBL
GOLDSBORO      SUNNY     50  22  33 SW5       30.20F
WASHINGTON     SUNNY     48  22  35 W5        30.23F
GREENVILLE     SUNNY     46  23  39 SW3       30.23F
NEW BERN       SUNNY     48  25  40 W6        30.23F
WILMINGTON     SUNNY     52  24  33 NW9       30.24F
$$

VAZ048-162000-
ELSEWHERE

CITY           SKY/WX    TMP DP  RH WIND       PRES   REMARKS
HARRISBURG PA  CLOUDY    41  25  53 SW5       30.00F
BALTIMORE      MOSUNNY   44  22  41 SW13G25   30.06F
ANNAPOLIS      MOSUNNY   45  24  43 SW12G25   30.08F
ANDREWS AFB    SUNNY     45  23  42 S15G22    30.07F
PHILADELPHIA   PTSUNNY   41  24  51 SW18G25   30.05F
HENDERSON NC   SUNNY     46  20  37 SW6       30.18F
GREENSBORO     MOSUNNY   47  23  38 SW10      30.18F
ROCKY MOUNT    SUNNY     48  24  39 CALM      30.21F
$$

VAZ100-162000-
MARINE

STATION/POSITION TIME  TEMP    WIND        PRES    WAVE   SWELL
                       AIR SEA DIR/SP/G            HT/PER HT/PER
                 (UTC) (F)     (DEG/KT/KT) (MB)    (FT/S) (FT/S)
BRANDYWINE LGT   1842   43     260/ 20/ 24 1019.0R
CAPE MAY NJ      1842   41 39  260/ 18/ 20 1018.4S
LEWES DE         1848   43 40  260/ 13/ 20 1019.1R
15NM E FENWICK I 1850   44 51  230/ 17/ 21 1019.8F   3/ 4
OCEAN-CITY-INLET 1848   43 43  250/ 11/ 15 1020.2F
WACHAPREAGUE VA  1848   45 39  220/  8/ 13 1020.8F
THOMAS POINT MD  1900   43 43  210/ 16/ 17   N/A
GOOSES REEF MD   1850   44     230/ 16/ 19 1020.0F
COVE POINT MD    1848   44     250/ 12/ 17 1020.4F
SOLOMONS ISLAND  1848   44 45  240/ 14/ 18 1019.6F
BISHOPS HEAD MD  1848   42 37  220/ 11/ 12 1020.5S
PINEY POINT MD   1836          260/  6/ 10   N/A
POTOMAC MD       1850   44     230/ 10/ 12 1019.7F
CAMBRIDGE MD     1848   45 40              1020.6R
LEWISETTA VA     1848   44 40  250/ 11/ 14 1020.3F
RAPPAHANNOCK LGT 1836          210/ 14/ 17 1021.5F
STINGRAY PT      1850   45     240/ 10/ 12 1021.0F
YORK RVR RNG VA  1848   45     240/ 13/ 15 1021.5F
YORKTOWN VA      1848   45 46  230/  9/ 15 1020.7F
JAMESTOWN VA     1850          230/  8/ 12   N/A
DOMINION TERM VA 1848   43     210/  9/ 12 1021.6F
KIPTOPEKE VA     1836      45  230/ 14/ 16   N/A
CAPE HENRY VA    1836   44     200/  8/ 12   N/A
WILLOUBY STN VA  1836          220/ 10/ 12 1021.2F
S CRANEY ISL VA  1836   45     200/  7/  8 1021.7F
CAPE HENRY BUOY  1830      52                N/A     2/11
1ST LANDING BUOY 1850   44     240/ 12/ 14 1021.6F
CAPE CHARLES BUO 1851      51                N/A     1/ 8
64NM E OF VA BCH 1850   44 58  270/  8/ 10 1022.6F   4/ 6   3/ 6
DUCK PIER NC     1836   42 52  230/  6/  8 1022.5F
44100 DUCK FRF   1845      54                N/A     3/ 6
44056 DUCK FRF   1900      54                N/A     2/ 7
OREGON INLET NC  1836   44 48  310/  4/  6 1023.1F
HATTERAS NC      1836   41 52  300/  8/ 10 1023.3R
DIAMOND SHLS NC  1850   46 73  280/  8/ 17 1023.5R   3/ 7   3/ 7
CAPE LOOKOUT NC  1800          220/  3/  5 1024.1F
$$




USA.gov is the U.S. government's official web portal to all federal, state and local government web resources and services.